Miami, FL

7:03 PM EST on February 23, 2017 (GMT -0500)
Kendall-Tamiami Executive

Weather History for KTMB - January, 2014

Change the Weather History Date:

Monday, January 13, 2014

  Actual Average Record
Temperature  
Mean Temperature 72 °F -  
Max Temperature 82 °F 78 °F 83 °F (1991)
Min Temperature 61 °F 55 °F 44 °F (2011)
Cooling Degree Days 6    
Growing Degree Days 22 (Base 50)    
Moisture  
Dew Point 67 °F    
Average Humidity 86    
Maximum Humidity 100    
Minimum Humidity 69    
Precipitation  
Precipitation 0.00 in - - ()
Sea Level Pressure  
Sea Level Pressure 30.10 in    
Wind  
Wind Speed 4 mph (ESE)    
Max Wind Speed 15 mph    
Max Gust Speed -    
Visibility 9 miles    
Events      
Averages and records for this station are not official NWS values.
T = Trace of Precipitation, MM = Missing Value Source: NWS Daily Summary

Daily Weather History Graph

Daily Weather History Graph

Search for Another Location

Airport or City:

Trip Planner

Search our weather history database for the weather conditions in past years. The results will help you decide how hot, cold, wet, or windy it might be!

Date:

Astronomy

Jan. 13, 2014 Rise Set
Actual Time 7:09 AM EST 5:51 PM EST
Civil Twilight 6:45 AM EST 6:16 PM EST
Nautical Twilight 6:16 AM EST 6:44 PM EST
Astronomical Twilight 5:48 AM EST 7:12 PM EST
Moon 4:03 PM EST (1/13) 4:59 AM EST (1/13)
Length of Visible Light 11h 30m
Length of Day
10h 41m
Waxing Gibbous, 95% of the Moon is Illuminated
Jan 13
Waxing Gibbous
Jan 15
Full
Jan 24
Last Quarter
Jan 30
New
Feb 6
First Quarter

Hourly Weather History & Observations

Time (EST) Temp. Heat Index Dew Point Humidity Pressure Visibility Wind Dir Wind Speed Gust Speed Precip Events Conditions
12:53 AM 64.0 °F - 62.1 °F 93% 30.14 in 10.0 mi Calm Calm - N/A   Clear
1:53 AM 64.9 °F - 62.1 °F 90% 30.12 in 10.0 mi Calm Calm - N/A   Clear
2:53 AM 63.0 °F - 62.1 °F 97% 30.12 in 10.0 mi Calm Calm - N/A   Partly Cloudy
3:53 AM 61.0 °F - 60.1 °F 97% 30.11 in 10.0 mi Calm Calm - N/A   Clear
4:53 AM 63.0 °F - 62.1 °F 97% 30.11 in 10.0 mi Calm Calm - N/A   Clear
5:53 AM 62.1 °F - 62.1 °F 100% 30.11 in 3.0 mi Calm Calm - N/A   Clear
6:53 AM 61.0 °F - 61.0 °F 100% 30.12 in 10.0 mi Calm Calm - N/A   Clear
7:53 AM 64.0 °F - 63.0 °F 96% 30.14 in 10.0 mi Calm Calm - 0.00 in   Partly Cloudy
8:53 AM 73.9 °F - 70.0 °F 87% 30.15 in 10.0 mi Calm Calm - N/A   Clear
9:53 AM 78.1 °F - 69.1 °F 74% 30.16 in 10.0 mi ESE 11.5 mph - N/A   Partly Cloudy
10:08 AM 78.8 °F - 69.8 °F 74% 30.15 in 10.0 mi ESE 15.0 mph - N/A   Mostly Cloudy
10:53 AM 79.0 °F - 69.1 °F 72% 30.14 in 10.0 mi SE 11.5 mph - N/A   Overcast
11:53 AM 79.0 °F - 69.1 °F 72% 30.12 in 10.0 mi ESE 11.5 mph - N/A   Overcast
12:02 PM 78.8 °F - 69.8 °F 74% 30.11 in 10.0 mi ESE 12.7 mph - N/A   Mostly Cloudy
12:53 PM 80.1 °F 83.2 °F 70.0 °F 71% 30.09 in 10.0 mi ESE 11.5 mph - N/A   Mostly Cloudy
1:26 PM 80.6 °F 83.9 °F 69.8 °F 70% 30.07 in 10.0 mi ESE 12.7 mph - N/A   Mostly Cloudy
1:53 PM 82.0 °F 86.3 °F 71.1 °F 69% 30.06 in 10.0 mi ESE 10.4 mph - N/A   Scattered Clouds
2:53 PM 80.1 °F 82.9 °F 69.1 °F 69% 30.06 in 10.0 mi SE 11.5 mph - N/A   Scattered Clouds
3:53 PM 79.0 °F - 70.0 °F 74% 30.05 in 10.0 mi SE 8.1 mph - N/A   Partly Cloudy
4:53 PM 79.0 °F - 71.1 °F 77% 30.06 in 10.0 mi ESE 10.4 mph - N/A   Partly Cloudy
5:53 PM 75.9 °F - 70.0 °F 82% 30.06 in 10.0 mi ESE 6.9 mph - N/A   Clear
6:53 PM 73.0 °F - 69.1 °F 87% 30.06 in 10.0 mi ESE 4.6 mph - N/A   Clear
7:53 PM 73.0 °F - 70.0 °F 90% 30.07 in 10.0 mi ESE 3.5 mph - N/A   Clear
8:53 PM 72.0 °F - 69.1 °F 91% 30.07 in 10.0 mi SE 3.5 mph - N/A   Clear
9:53 PM 71.1 °F - 69.1 °F 93% 30.08 in 10.0 mi Calm Calm - N/A   Clear
10:53 PM 69.1 °F - 69.1 °F 100% 30.07 in 10.0 mi Calm Calm - N/A   Clear
11:53 PM 66.0 °F - 66.0 °F 100% 30.05 in 3.0 mi Calm Calm - N/A   Clear
11:55 PM 66.2 °F - 66.2 °F 100% 30.05 in 1.8 mi Calm Calm - N/A   Clear